Regional Weather Roundup
Issued by NWS Midland/Odessa, TX

Home | Current Version | Previous Version | Text Only | Print | Product List | Glossary On
Versions: 1 2 3 4 5 6 7 8 9 10 11 12 13 14 15 16 17 18 19 20 21 22 23 24 25 26 27 28 29 30 31 32 33 34 35 36 37 38 39 40 41 42 43 44 45 46 47 48 49 50
000
ASUS44 KMAF 040010
RWRMAF
MIDLAND AREA WEATHER ROUNDUP
NATIONAL WEATHER SERVICE MIDLAND TX
700 PM CDT MON AUG 03 2015

...IN SOUTHWEST TEXAS AND SOUTHEAST NEW MEXICO...

CITY           SKY/WX    TMP DP  RH WIND       PRES   REMARKS
ALPINE         PTSUNNY   87  56  34 SE7       30.08S
ANDREWS        PTSUNNY   94  56  27 S13       29.90F
ARTESIA        CLOUDY    75  70  83 SW5       29.96F
BIG SPRING     SUNNY     95  60  30 SE13      29.91S
CARLSBAD       TSTM      81  62  52 W10       29.95R
DRYDEN           N/A     98  58  26 E8G20     29.85S
FORT STOCKTON  MOSUNNY   94  57  28 SE13      29.90R
GUAD PASS      CLOUDY    79  54  41 SW16G22   30.13R
HOBBS          TSTM      79  64  61 NW23G32   29.98R
MARFA          PTSUNNY   84  57  39 W5        30.07S
MIDLAND AIRPK  MOSUNNY   97  56  25 SE14      29.89F
MIDLAND INTL   MOSUNNY   97  58  27 SE14      29.88F
ODESSA         MOSUNNY   97  56  25 SE18G31   29.89F
PECOS          PTSUNNY   82  61  48 NW15      29.89R
PRESIDIO       FAIR      95  58  28 MISG      29.85F
SEMINOLE       PTSUNNY   79  65  63 NE9       29.93S
SNYDER         CLOUDY    94  63  35 SE7       29.91S
WINK           PTSUNNY   81  64  56 W30G47    29.89R THUNDER
$$
...OTHER STATIONS IN TEXAS...

CITY           SKY/WX    TMP DP  RH WIND       PRES   REMARKS
ABILENE        SUNNY     95  61  32 SE13      29.88F
AMARILLO       SUNNY     84  67  56 SE18      29.97S
AUSTIN         MOSUNNY   94  62  34 E9        29.85S
BROWNSVILLE    PTSUNNY   89  77  67 SE16G23   29.85R HX 101
CORPUS CHRISTI PTSUNNY   85  75  72 SE20      29.85S
DALLAS FTW     MOSUNNY   97  57  26 SE9       29.85F
DEL RIO        SUNNY     99  60  27 E10       29.80F
EL PASO        PTSUNNY   93  54  26 W8        29.96S
HOUSTON INT    MOSUNNY   93  66  40 SE9       29.86S
LUBBOCK        CLOUDY    88  61  40 S9        29.95S
SAN ANGELO     SUNNY     98  58  26 E13       29.85F
SAN ANTONIO    MOSUNNY   95  58  28 SE10      29.86R
WACO           SUNNY     96  58  27 E12       29.86S
WICHITA FALLS  NOT AVBL
$$
...OTHER LOCATIONS IN NEW MEXICO...

CITY           SKY/WX    TMP DP  RH WIND       PRES   REMARKS
ALAMAGORDO     MOSUNNY   95  45  17 W8G18     29.96F
ALBUQUERQUE    MOSUNNY   89  43  20 NW15G24   30.08F
CANNON AFB     MOSUNNY   78  63  58 S16G22    29.99F
CLOVIS         PTSUNNY   81  61  50 S15       30.00F
HOLLOMAN AFB   MOSUNNY   96  46  18 W8        29.94S
ROSWELL        CLOUDY    81  63  54 S14       29.94F
RUIDOSO        NOT AVBL
SANTA FE       MOSUNNY   84  45  25 N15       30.12F
TRUTH OR CONSE MOSUNNY   90  52  27 CALM      30.01F
TUCUMCARI      SUNNY     89  60  37 S9        29.92F
$$


USA.gov is the U.S. government's official web portal to all federal, state and local government web resources and services.